Jaffrey, NH

12:31 AM EDT on June 29, 2017 (GMT -0400)
Jaffrey Airport-Silver Ranch

Weather History for KAFN - April, 2014

Change the Weather History Date:

Tuesday, April 29, 2014

  Actual Average Record
Temperature  
Mean Temperature 40 °F -  
Max Temperature 44 °F 59 °F 77 °F (2017)
Min Temperature 36 °F 35 °F 26 °F (2001)
Degree Days  
Heating Degree Days 24    
Moisture  
Dew Point 34 °F    
Average Humidity 83    
Maximum Humidity 93    
Minimum Humidity 62    
Precipitation  
Precipitation 0.01 in - - ()
Sea Level Pressure  
Sea Level Pressure 30.38 in    
Wind  
Wind Speed 3 mph (East)    
Max Wind Speed 8 mph    
Max Gust Speed -    
Visibility 8 miles    
Events Rain    
Averages and records for this station are not official NWS values.
T = Trace of Precipitation, MM = Missing Value Source: NWS Daily Summary

Daily Weather History Graph

Daily Weather History Graph

Search for Another Location

Airport or City:

Trip Planner

Search our weather history database for the weather conditions in past years. The results will help you decide how hot, cold, wet, or windy it might be!

Date:

Astronomy

Apr. 29, 2014 Rise Set
Actual Time 5:45 AM EDT 7:46 PM EDT
Civil Twilight 5:14 AM EDT 8:17 PM EDT
Nautical Twilight 4:36 AM EDT 8:54 PM EDT
Astronomical Twilight 3:55 AM EDT 9:36 PM EDT
Moon 6:01 AM EDT 8:23 PM EDT
Length of Visible Light 15h 02m
Length of Day
14h 01m
New Moon, 0% of the Moon is Illuminated
Apr 29
New Moon
May 6
First Quarter
May 14
Full
May 21
Last Quarter
May 28
New

Hourly Weather History & Observations

Time (EDT) Temp. Windchill Dew Point Humidity Pressure Visibility Wind Dir Wind Speed Gust Speed Precip Events Conditions
12:22 AM 43.0 °F - 39.0 °F 86% 30.22 in 5.0 mi Calm Calm - N/A   Overcast
12:37 AM 43.0 °F - 39.9 °F 89% 30.22 in 10.0 mi Calm Calm - N/A   Overcast
12:52 AM 44.1 °F 41.5 °F 39.0 °F 82% 30.25 in 10.0 mi Variable 4.6 mph - N/A   Overcast
1:52 AM 41.0 °F 38.0 °F 37.0 °F 86% 30.27 in 5.0 mi Variable 4.6 mph - N/A   Overcast
2:11 AM 41.0 °F - 37.0 °F 86% 30.24 in 3.0 mi Calm Calm - 0.00 in Rain Light Rain
2:19 AM 41.0 °F 38.0 °F 37.0 °F 86% 30.24 in 4.0 mi Variable 4.6 mph - 0.00 in   Overcast
2:30 AM 39.9 °F - 37.0 °F 89% 30.24 in 3.0 mi Calm Calm - 0.00 in Rain Light Rain
2:33 AM 39.9 °F 37.8 °F 37.9 °F 93% 30.24 in 3.0 mi Variable 3.5 mph - 0.00 in Rain Light Rain
2:49 AM 39.2 °F - 37.4 °F 93% 30.25 in 5.0 mi Calm Calm - 0.00 in Rain Light Rain
2:52 AM 39.9 °F - 37.0 °F 89% 30.28 in 5.0 mi Calm Calm - 0.00 in Rain Light Rain
3:14 AM 39.9 °F - 37.0 °F 89% 30.27 in 4.0 mi Calm Calm - 0.00 in Rain Light Rain
3:22 AM 39.9 °F 36.7 °F 37.0 °F 89% 30.27 in 4.0 mi Variable 4.6 mph - 0.00 in Rain Light Rain
3:52 AM 39.0 °F - 36.0 °F 89% 30.31 in 5.0 mi Calm Calm - 0.00 in   Overcast
4:43 AM 39.0 °F 36.8 °F 36.0 °F 89% 30.29 in 4.0 mi Variable 3.5 mph - 0.00 in   Overcast
4:52 AM 39.0 °F - 36.0 °F 89% 30.33 in 4.0 mi Calm Calm - 0.00 in   Overcast
5:28 AM 37.9 °F 35.5 °F 35.1 °F 89% 30.31 in 3.0 mi Variable 3.5 mph - 0.00 in   Overcast
5:52 AM 37.9 °F 35.5 °F 35.1 °F 89% 30.35 in 8.0 mi Variable 3.5 mph - 0.00 in   Overcast
6:03 AM 37.9 °F 33.5 °F 35.1 °F 89% 30.32 in 6.0 mi Variable 5.8 mph - N/A   Overcast
6:11 AM 37.9 °F 35.5 °F 35.1 °F 89% 30.31 in 5.0 mi Variable 3.5 mph - N/A   Overcast
6:27 AM 37.9 °F 35.5 °F 35.1 °F 89% 30.32 in 6.0 mi Variable 3.5 mph - N/A   Overcast
6:35 AM 37.9 °F 35.5 °F 35.1 °F 89% 30.33 in 7.0 mi Variable 3.5 mph - N/A   Overcast
6:43 AM 37.9 °F 35.5 °F 34.0 °F 86% 30.34 in 4.0 mi Variable 3.5 mph - 0.00 in Rain Light Rain
7:45 AM 37.9 °F 34.4 °F 34.0 °F 86% 30.37 in 10.0 mi Variable 4.6 mph - 0.01 in   Overcast
7:52 AM 37.9 °F 35.5 °F 34.0 °F 86% 30.40 in 10.0 mi Variable 3.5 mph - 0.01 in   Overcast
8:40 AM 37.9 °F 33.5 °F 34.0 °F 86% 30.37 in 7.0 mi NE 5.8 mph - 0.00 in Rain Light Rain
9:43 AM 37.9 °F 34.4 °F 34.0 °F 86% 30.41 in 10.0 mi Variable 4.6 mph - N/A   Overcast
9:52 AM 37.9 °F 33.5 °F 34.0 °F 86% 30.46 in 10.0 mi Variable 5.8 mph - N/A   Overcast
11:52 AM 41.0 °F - 32.0 °F 70% 30.45 in 10.0 mi North - - N/A   Overcast
12:52 PM 41.0 °F 39.0 °F 30.9 °F 67% 30.48 in 10.0 mi Variable 3.5 mph - N/A   Overcast
1:52 PM 43.0 °F 39.5 °F 30.9 °F 62% 30.48 in 10.0 mi Variable 5.8 mph - N/A   Overcast
2:52 PM 42.1 °F 37.7 °F 32.0 °F 67% 30.49 in 10.0 mi Variable 6.9 mph - N/A   Overcast
3:52 PM 39.9 °F 35.1 °F 32.0 °F 73% 30.49 in 10.0 mi Variable 6.9 mph - N/A   Overcast
4:52 PM 39.0 °F 33.4 °F 32.0 °F 76% 30.51 in 10.0 mi ESE 8.1 mph - N/A   Overcast
5:13 PM 39.0 °F 34.8 °F 32.0 °F 76% 30.45 in 10.0 mi Variable 5.8 mph - N/A   Overcast
6:52 PM 39.0 °F 34.0 °F 30.9 °F 73% 30.51 in 10.0 mi Variable 6.9 mph - N/A   Overcast
7:39 PM 37.9 °F 34.4 °F 30.0 °F 73% 30.46 in 10.0 mi Variable 4.6 mph - N/A   Overcast
7:49 PM 37.4 °F 32.8 °F 30.2 °F 75% 30.47 in 10.0 mi Variable 5.8 mph - N/A   Overcast
7:52 PM 37.9 °F 35.5 °F 30.0 °F 73% 30.52 in 10.0 mi Variable 3.5 mph - N/A   Overcast
8:52 PM 37.9 °F 35.5 °F 30.9 °F 76% 30.54 in 10.0 mi Variable 3.5 mph - N/A   Overcast
9:37 PM 37.9 °F 35.5 °F 30.9 °F 76% 30.47 in 10.0 mi Variable 3.5 mph - 0.00 in Rain Light Rain
9:52 PM 37.9 °F 32.7 °F 30.9 °F 76% 30.52 in 10.0 mi Variable 6.9 mph - 0.00 in Rain Light Rain
10:13 PM 37.0 °F 33.3 °F 30.9 °F 79% 30.48 in 10.0 mi Variable 4.6 mph - 0.00 in   Overcast
10:27 PM 37.0 °F 33.3 °F 30.9 °F 79% 30.48 in 10.0 mi Variable 4.6 mph - 0.00 in   Overcast
11:52 PM 36.0 °F - 33.1 °F 89% 30.54 in 10.0 mi Calm Calm - 0.00 in   Overcast